F8KHU-13 Weather Reports


Display with metric or nautical units.
time (UTC)temp
F
wind
direction
speed
MPH
gust
MPH
rain 1hr
in
rain 24hr
in
rain mn
in
humidity
%
barometer
mb
20260507105536 64 135 0.0 5.0 0.00 0.00 0.00 29 1018.2
20260507105516 64 136 1.0 5.0 0.00 0.00 0.00 29 1018.2
20260507105456 64 135 0.0 5.0 0.00 0.00 0.00 29 1018.2
20260507104036 62 119 0.0 5.0 0.00 0.00 0.00 29 1018.1
20260507104017 62 121 1.0 5.0 0.00 0.00 0.00 29 1018.2
20260507103956 62 120 1.0 5.0 0.00 0.00 0.00 29 1018.2
20260507102536 62 133 1.0 7.0 0.00 0.00 0.00 29 1018.2
20260507102517 62 132 1.0 7.0 0.00 0.00 0.00 29 1018.2
20260507102456 62 133 2.0 7.0 0.00 0.00 0.00 29 1018.2
20260507101037 62 117 1.0 7.0 0.00 0.00 0.00 29 1018.1
20260507101017 62 116 3.0 7.0 0.00 0.00 0.00 29 1018.2
20260507100957 62 113 0.0 7.0 0.00 0.00 0.00 29 1018.2
20260507095537 62 135 0.0 5.0 0.00 0.00 0.00 29 1018.1
20260507095457 62 135 1.0 5.0 0.00 0.00 0.00 29 1018.1
20260507094037 62 125 3.0 5.0 0.00 0.00 0.00 29 1018.1
20260507094017 62 125 2.0 5.0 0.00 0.00 0.00 29 1018.1
20260507093957 62 125 3.0 5.0 0.00 0.00 0.00 29 1018.0
20260507092537 62 124 1.0 5.0 0.00 0.00 0.00 29 1018.0
20260507092517 62 125 0.0 5.0 0.00 0.00 0.00 29 1018.0
20260507092457 62 126 1.0 5.0 0.00 0.00 0.00 29 1018.0
20260507091037 61 132 1.0 4.0 0.00 0.00 0.00 29 1017.9
20260507091017 61 132 0.0 4.0 0.00 0.00 0.00 29 1017.9
20260507090957 61 131 0.0 4.0 0.00 0.00 0.00 29 1017.9
20260507085537 60 130 0.0 7.0 0.00 0.00 0.00 30 1017.8
20260507085517 60 131 0.0 7.0 0.00 0.00 0.00 30 1017.8
20260507085457 60 133 0.0 7.0 0.00 0.00 0.00 30 1017.8
20260507084037 58 141 0.0 5.0 0.00 0.00 0.00 30 1017.7
20260507084017 58 140 0.0 5.0 0.00 0.00 0.00 30 1017.8
20260507083957 58 141 0.0 5.0 0.00 0.00 0.00 30 1017.8
20260507082538 57 148 0.0 2.0 0.00 0.00 0.00 30 1017.7
20260507082518 57 147 0.0 2.0 0.00 0.00 0.00 30 1017.7
20260507082458 57 146 1.0 2.0 0.00 0.00 0.00 30 1017.8
20260507081038 56 107 0.0 5.0 0.00 0.00 0.00 31 1017.6
20260507080958 56 104 0.0 5.0 0.00 0.00 0.00 31 1017.6
20260507075538 55 102 0.0 5.0 0.00 0.00 0.00 31 1017.5
20260507075518 55 99 0.0 5.0 0.00 0.00 0.00 31 1017.5
20260507075458 55 96 0.0 5.0 0.00 0.00 0.00 31 1017.5
20260507074038 54 113 0.0 2.0 0.00 0.00 0.00 31 1017.4
20260507074018 54 112 0.0 2.0 0.00 0.00 0.00 31 1017.5
20260507073958 54 114 0.0 2.0 0.00 0.00 0.00 31 1017.5
20260507072538 53 84 0.0 4.0 0.00 0.00 0.00 31 1017.4
20260507072518 53 84 1.0 4.0 0.00 0.00 0.00 31 1017.3
20260507072458 53 83 0.0 4.0 0.00 0.00 0.00 31 1017.4
20260507071033 52 88 1.0 4.0 0.00 0.00 0.00 32 1017.3
20260507071013 52 88 2.0 4.0 0.00 0.00 0.00 32 1017.3
20260507070953 52 88 1.0 2.0 0.00 0.00 0.00 32 1017.3
20260507065536 52 142 0.0 1.0 0.00 0.00 0.00 33 1017.3
20260507065516 52 143 0.0 1.0 0.00 0.00 0.00 33 1017.2
20260507065455 52 145 0.0 1.0 0.00 0.00 0.00 33 1017.2
20260507064036 51 102 0.0 4.0 0.00 0.00 0.00 33 1017.1
20260507064016 51 103 0.0 4.0 0.00 0.00 0.00 33 1017.2
20260507063956 51 102 0.0 4.0 0.00 0.00 0.00 33 1017.1
20260507062536 50 75 0.0 1.0 0.00 0.00 0.00 33 1017.1
20260507062516 50 74 0.0 1.0 0.00 0.00 0.00 33 1017.0
20260507062456 50 75 0.0 1.0 0.00 0.00 0.00 33 1017.0
20260507061036 49 109 0.0 1.0 0.00 0.00 0.00 33 1016.9
20260507060956 49 110 0.0 1.0 0.00 0.00 0.00 33 1016.9
20260507055536 48 79 0.0 1.0 0.00 0.00 0.00 33 1016.8
20260507055517 48 78 0.0 1.0 0.00 0.00 0.00 33 1016.8
20260507055456 48 77 0.0 1.0 0.00 0.00 0.00 33 1016.8
20260507054016 48 49 0.0 1.0 0.00 0.00 0.00 35 1016.6
20260507053956 47 49 0.0 1.0 0.00 0.00 0.00 35 1016.5
20260507052536 47 24 0.0 1.0 0.00 0.00 0.00 35 1016.3
20260507052516 47 23 0.0 1.0 0.00 0.00 0.00 35 1016.4
20260507052456 47 22 0.0 1.0 0.00 0.00 0.00 35 1016.4
20260507051036 47 45 0.0 1.0 0.00 0.00 0.00 35 1016.3
20260507050956 47 45 0.0 1.0 0.00 0.00 0.00 35 1016.3
20260507045516 46 69 0.0 1.0 0.00 0.02 0.00 35 1016.2
20260507045456 46 70 0.0 1.0 0.00 0.02 0.00 36 1016.2
20260507044037 46 87 0.0 2.0 0.00 0.02 0.00 35 1016.0
20260507043957 46 87 0.0 2.0 0.00 0.02 0.00 35 1016.0
20260507042537 46 52 0.0 1.0 0.00 0.02 0.00 35 1015.9
20260507042457 46 49 0.0 1.0 0.00 0.02 0.00 35 1015.9
20260507041037 45 61 0.0 1.0 0.00 0.02 0.00 34 1015.9
20260507040957 45 62 0.0 1.0 0.00 0.02 0.00 34 1015.9
20260507035537 45 78 0.0 2.0 0.00 0.02 0.00 34 1015.7
20260507035457 45 77 0.0 2.0 0.00 0.02 0.00 34 1015.8
20260507034037 45 95 0.0 2.0 0.00 0.02 0.00 34 1015.7
20260507034017 45 94 1.0 2.0 0.00 0.02 0.00 34 1015.8
20260507033957 45 93 1.0 2.0 0.00 0.02 0.00 34 1015.8
20260507032538 45 60 0.0 1.0 0.00 0.02 0.00 34 1015.7
20260507032457 45 60 0.0 1.0 0.00 0.02 0.00 34 1015.7
20260507031038 45 41 0.0 1.0 0.00 0.02 0.00 34 1015.6
20260507031018 45 40 0.0 1.0 0.00 0.02 0.00 34 1015.6
20260507030958 45 39 0.0 1.0 0.00 0.02 0.00 34 1015.6
20260507025518 45 58 0.0 2.0 0.00 0.02 0.00 34 1015.5
20260507025458 45 60 0.0 2.0 0.00 0.02 0.00 34 1015.5
20260507024038 45 89 0.0 2.0 0.00 0.02 0.00 34 1015.5
20260507024018 45 89 0.0 2.0 0.00 0.02 0.00 34 1015.6
20260507023958 45 89 0.0 2.0 0.00 0.02 0.00 34 1015.5
20260507022538 45 86 0.0 2.0 0.00 0.02 0.00 34 1015.5
20260507022458 45 86 0.0 2.0 0.00 0.02 0.00 34 1015.5
20260507021038 44 55 0.0 2.0 0.00 0.02 0.00 34 1015.4
20260507020958 44 55 0.0 2.0 0.00 0.02 0.00 34 1015.3
20260507015513 44 82 0.0 2.0 0.00 0.06 0.00 34 1015.2
20260507015453 44 83 0.0 2.0 0.00 0.06 0.00 34 1015.2
20260507014033 44 48 0.0 1.0 0.00 0.06 0.00 34 1015.1
20260507014014 44 48 0.0 1.0 0.00 0.06 0.00 34 1015.2
20260507013954 44 49 0.0 1.0 0.00 0.06 0.00 34 1015.1
20260507012513 44 76 0.0 1.0 0.00 0.06 0.00 34 1015.1
20260507012454 44 77 0.0 1.0 0.00 0.06 0.00 34 1015.1
20260507011014 45 39 0.0 1.0 0.00 0.06 0.00 34 1015.1
20260507010954 45 38 0.0 1.0 0.00 0.06 0.00 34 1015.1
20260507005534 45 86 0.0 1.0 0.00 0.08 0.00 34 1015.1
20260507005514 45 86 0.0 1.0 0.00 0.08 0.00 34 1015.0
20260507005454 45 87 0.0 1.0 0.00 0.08 0.00 34 1015.1
20260507004035 45 87 0.0 1.0 0.00 0.08 0.00 34 1015.1
20260507004014 45 87 0.0 1.0 0.00 0.08 0.00 34 1015.0
20260507003954 45 90 0.0 1.0 0.00 0.08 0.00 34 1015.0
20260507002534 45 62 0.0 1.0 0.00 0.08 0.00 34 1015.0
20260507002454 45 62 0.0 1.0 0.00 0.08 0.00 34 1015.0
20260507001034 46 61 0.0 1.0 0.00 0.08 0.00 34 1015.0
20260507001014 46 62 0.0 1.0 0.00 0.08 0.00 34 1015.0
20260507000954 46 62 0.0 1.0 0.00 0.08 0.00 34 1015.1
20260506235535 46 42 0.0 1.0 0.00 0.13 0.00 34 1014.8
20260506235514 46 41 0.0 1.0 0.00 0.13 0.00 34 1014.9
20260506235454 46 40 0.0 1.0 0.00 0.13 0.00 34 1014.9
20260506234015 46 23 0.0 1.0 0.00 0.13 0.00 34 1014.9
20260506233955 46 22 0.0 1.0 0.00 0.13 0.00 33 1014.8
20260506232515 47 63 0.0 1.0 0.00 0.13 0.00 33 1014.7
20260506232455 47 63 0.0 1.0 0.00 0.13 0.00 33 1014.8
20260506231035 47 54 0.0 2.0 0.00 0.13 0.00 33 1014.7
20260506230955 47 54 0.0 2.0 0.00 0.13 0.00 33 1014.7
20260506225535 48 177 0.0 1.0 0.00 0.17 0.17 32 1014.6
20260506225515 48 180 0.0 1.0 0.00 0.17 0.17 32 1014.7
20260506225455 48 183 0.0 1.0 0.00 0.17 0.17 32 1014.6
20260506224035 49 167 0.0 1.0 0.00 0.17 0.17 32 1014.5
20260506224015 49 164 0.0 1.0 0.00 0.17 0.17 32 1014.5
20260506223955 49 162 0.0 1.0 0.00 0.17 0.17 32 1014.4
20260506222535 49 166 0.0 2.0 0.00 0.17 0.17 32 1014.3
20260506222515 49 164 0.0 2.0 0.00 0.17 0.17 32 1014.2
20260506222455 49 161 0.0 2.0 0.00 0.17 0.17 32 1014.3
20260506221035 49 139 0.0 4.0 0.00 0.17 0.17 32 1014.3
20260506221015 49 137 0.0 4.0 0.00 0.17 0.17 32 1014.2
20260506220955 50 138 0.0 4.0 0.00 0.17 0.17 32 1014.2
20260506215536 51 135 0.0 4.0 0.00 0.22 0.17 31 1014.1
20260506215515 51 134 0.0 4.0 0.00 0.22 0.17 31 1014.1
20260506215455 51 134 0.0 4.0 0.00 0.22 0.17 31 1014.2
20260506214035 52 128 0.0 7.0 0.00 0.22 0.17 31 1014.2
20260506214016 52 129 0.0 7.0 0.00 0.22 0.17 31 1014.1
20260506213955 52 128 0.0 7.0 0.00 0.22 0.17 31 1014.1
20260506212536 53 137 4.0 5.0 0.00 0.22 0.17 31 1014.1
20260506212516 53 136 1.0 4.0 0.00 0.22 0.17 31 1014.1
20260506212456 53 137 0.0 4.0 0.00 0.22 0.17 31 1014.1
20260506211036 53 131 1.0 4.0 0.00 0.22 0.17 31 1013.9
20260506211016 53 132 1.0 4.0 0.00 0.22 0.17 31 1013.9
20260506210956 53 133 1.0 4.0 0.00 0.22 0.17 31 1013.9
20260506205536 53 114 0.0 4.0 0.00 0.22 0.17 31 1013.8
20260506205516 53 112 0.0 4.0 0.00 0.22 0.17 31 1013.8
20260506205456 53 111 0.0 4.0 0.00 0.22 0.17 31 1013.7
20260506204036 53 113 0.0 5.0 0.00 0.22 0.17 31 1013.6
20260506204016 53 113 1.0 5.0 0.00 0.22 0.17 31 1013.6
20260506203956 53 113 0.0 5.0 0.00 0.22 0.17 31 1013.7
20260506202516 53 102 1.0 4.0 0.00 0.22 0.17 32 1013.6
20260506202456 53 102 0.0 4.0 0.00 0.22 0.17 32 1013.5
20260506201037 53 103 1.0 4.0 0.00 0.22 0.17 32 1013.4
20260506201016 53 103 1.0 4.0 0.00 0.22 0.17 32 1013.3
20260506200956 53 104 1.0 4.0 0.00 0.22 0.17 32 1013.4
20260506195536 53 108 1.0 4.0 0.00 0.22 0.17 32 1013.2
20260506195516 53 108 0.0 4.0 0.00 0.22 0.17 32 1013.2
20260506195456 53 109 0.0 4.0 0.00 0.22 0.17 32 1013.2
20260506194037 54 103 1.0 4.0 0.00 0.22 0.17 31 1013.1
20260506194017 54 103 0.0 4.0 0.00 0.22 0.17 31 1013.1
20260506193956 54 103 1.0 4.0 0.00 0.22 0.17 31 1013.1
20260506192537 54 109 0.0 4.0 0.00 0.22 0.17 32 1013.0
20260506192517 54 107 1.0 4.0 0.00 0.22 0.17 32 1013.0
20260506192457 54 107 0.0 4.0 0.00 0.22 0.17 32 1013.0
20260506191037 54 104 0.0 4.0 0.00 0.22 0.17 32 1012.8
20260506191017 54 104 0.0 4.0 0.00 0.22 0.17 31 1012.8
20260506190957 54 104 1.0 4.0 0.00 0.22 0.17 31 1012.7
20260506185537 54 96 1.0 5.0 0.00 0.24 0.17 31 1012.6
20260506185517 54 96 0.0 5.0 0.00 0.24 0.17 31 1012.7
20260506185457 54 96 0.0 5.0 0.00 0.24 0.17 31 1012.6
20260506184037 54 95 1.0 4.0 0.00 0.24 0.17 32 1012.5
20260506184017 54 95 1.0 4.0 0.00 0.24 0.17 31 1012.5
20260506183957 54 96 0.0 4.0 0.00 0.24 0.17 31 1012.5
20260506182517 55 92 1.0 4.0 0.00 0.24 0.17 31 1012.4
20260506182457 55 92 1.0 4.0 0.00 0.24 0.17 31 1012.5
20260506181037 55 93 1.0 5.0 0.00 0.24 0.17 31 1012.2
20260506181018 55 94 1.0 5.0 0.00 0.24 0.17 31 1012.3
20260506180957 55 94 1.0 5.0 0.00 0.24 0.17 31 1012.2
20260506175538 55 95 0.0 5.0 0.00 0.24 0.17 31 1012.1
20260506175518 55 95 1.0 5.0 0.00 0.24 0.17 31 1012.1
20260506175458 55 96 2.0 5.0 0.00 0.24 0.17 30 1012.1
20260506174038 56 103 1.0 8.0 0.00 0.24 0.17 30 1011.9
20260506174018 56 103 3.0 8.0 0.00 0.24 0.17 30 1012.0
20260506173958 56 103 5.0 8.0 0.00 0.24 0.17 30 1011.9
20260506172538 57 94 5.0 9.0 0.00 0.24 0.17 30 1011.8
20260506172518 57 94 2.0 9.0 0.00 0.24 0.17 30 1011.7
20260506172458 57 94 4.0 9.0 0.00 0.24 0.17 30 1011.8
20260506171038 57 97 7.0 11.0 0.00 0.24 0.17 30 1011.6
20260506171018 57 96 2.0 11.0 0.00 0.24 0.17 30 1011.7
20260506170958 57 97 1.0 11.0 0.00 0.24 0.17 30 1011.7
20260506165533 57 94 7.0 11.0 0.00 0.24 0.17 30 1011.6
20260506165513 58 94 1.0 11.0 0.00 0.24 0.17 30 1011.6
20260506165453 58 93 2.0 11.0 0.00 0.24 0.17 30 1011.6
20260506164033 57 101 4.0 11.0 0.00 0.24 0.17 30 1011.5
20260506164013 57 101 5.0 11.0 0.00 0.24 0.17 30 1011.5
20260506163953 57 102 5.0 11.0 0.00 0.24 0.17 30 1011.5
20260506162534 57 93 4.0 11.0 0.00 0.24 0.17 30 1011.5
20260506162513 57 93 6.0 11.0 0.00 0.24 0.17 30 1011.4
20260506162453 57 93 4.0 11.0 0.00 0.24 0.17 30 1011.3
20260506161033 57 96 4.0 8.0 0.00 0.24 0.17 30 1011.5
20260506161013 56 96 4.0 8.0 0.00 0.24 0.17 30 1011.4
20260506160954 56 96 3.0 8.0 0.00 0.24 0.17 30 1011.5
20260506155534 56 93 7.0 9.0 0.00 0.26 0.17 30 1011.5
20260506155514 56 93 7.0 9.0 0.00 0.26 0.17 30 1011.4
20260506155454 56 93 7.0 9.0 0.00 0.26 0.17 30 1011.5
20260506154034 56 93 8.0 13.0 0.00 0.26 0.17 30 1011.4
20260506154014 56 93 5.0 13.0 0.00 0.26 0.17 30 1011.4
20260506153954 56 93 4.0 13.0 0.00 0.26 0.17 30 1011.5
20260506152534 57 93 8.0 13.0 0.00 0.26 0.17 30 1011.4
20260506152454 57 93 5.0 13.0 0.00 0.26 0.17 30 1011.4
20260506151034 59 93 5.0 8.0 0.00 0.26 0.17 30 1011.5
20260506151014 59 93 6.0 8.0 0.00 0.26 0.17 30 1011.5
20260506150954 59 93 4.0 8.0 0.00 0.26 0.17 30 1011.5
20260506145534 58 87 2.0 7.0 0.00 0.26 0.17 30 1011.4
20260506145514 58 87 3.0 7.0 0.00 0.26 0.17 30 1011.5
20260506145454 58 87 3.0 7.0 0.00 0.26 0.17 30 1011.4
20260506144106 58 90 4.0 7.0 0.00 0.26 0.17 30 1011.4
20260506144034 58 90 4.0 7.0 0.00 0.26 0.17 30 1011.4
20260506144014 58 90 1.0 7.0 0.00 0.26 0.17 30 1011.5
20260506143954 58 90 4.0 7.0 0.00 0.26 0.17 30 1011.4
20260506142535 60 92 4.0 9.0 0.00 0.26 0.17 29 1011.4
20260506142514 60 92 2.0 9.0 0.00 0.26 0.17 30 1011.3
20260506142454 60 92 3.0 9.0 0.00 0.26 0.17 29 1011.3
20260506141035 59 94 4.0 8.0 0.00 0.26 0.17 30 1011.4
20260506140955 59 94 4.0 8.0 0.00 0.26 0.17 30 1011.4
20260506135535 58 93 3.0 9.0 0.00 0.26 0.17 30 1011.6
20260506135515 58 93 4.0 9.0 0.00 0.26 0.17 30 1011.6
20260506135455 58 93 5.0 9.0 0.00 0.26 0.17 30 1011.6
20260506134015 58 100 3.0 7.0 0.00 0.26 0.17 30 1011.4
20260506133955 58 101 3.0 7.0 0.00 0.26 0.17 30 1011.5
20260506132535 56 92 3.0 7.0 0.00 0.26 0.17 31 1011.5
20260506132515 56 93 1.0 7.0 0.00 0.26 0.17 32 1011.5
20260506132455 56 92 1.0 7.0 0.00 0.26 0.17 31 1011.5
20260506131035 55 103 2.0 7.0 0.00 0.26 0.17 32 1011.5
20260506131015 55 103 3.0 7.0 0.00 0.26 0.17 32 1011.5
20260506130955 55 103 2.0 7.0 0.00 0.26 0.17 32 1011.5
20260506125535 56 103 3.0 8.0 0.00 0.26 0.17 31 1011.4
20260506125455 56 104 3.0 8.0 0.00 0.26 0.17 31 1011.4
20260506124035 57 117 2.0 9.0 0.00 0.26 0.17 30 1011.4
20260506124015 57 117 3.0 9.0 0.00 0.26 0.17 30 1011.3
20260506123955 57 117 4.0 9.0 0.00 0.26 0.17 30 1011.3
20260506122536 58 127 3.0 9.0 0.00 0.26 0.17 30 1011.3
20260506122516 58 128 4.0 9.0 0.00 0.26 0.17 30 1011.2
20260506122455 58 129 3.0 9.0 0.00 0.26 0.17 30 1011.2
20260506121036 55 120 1.0 7.0 0.00 0.26 0.17 32 1011.2
20260506121016 55 121 2.0 7.0 0.00 0.26 0.17 32 1011.2
20260506120956 55 121 1.0 7.0 0.00 0.26 0.17 32 1011.3
20260506115516 54 102 1.0 8.0 0.00 0.26 0.17 32 1011.2
20260506115456 54 101 1.0 8.0 0.00 0.26 0.17 32 1011.2
20260506114036 54 105 1.0 11.0 0.00 0.26 0.17 32 1011.0
20260506114016 55 105 5.0 11.0 0.00 0.26 0.17 32 1011.1
20260506113956 55 105 2.0 11.0 0.00 0.26 0.17 32 1011.1
20260506112536 56 120 1.0 9.0 0.00 0.26 0.17 32 1011.0
20260506112516 56 120 3.0 9.0 0.00 0.26 0.17 32 1011.1
20260506112456 56 120 2.0 9.0 0.00 0.26 0.17 32 1011.0
20260506111036 56 122 1.0 11.0 0.00 0.26 0.17 32 1011.0
20260506111016 56 122 1.0 11.0 0.00 0.26 0.17 32 1011.1
20260506110956 56 123 3.0 11.0 0.00 0.26 0.17 32 1011.1